Date String (YYYY-MM-DD hh:mm:ss) UTC,Instrument flags,absolute air pressure of the measurement (hPa),sample flow rate (lpm),inlet stack bypass flow (lpm),air temperature of the measurement (°C),ambient temperature measured by the external sensor (°C),aerosol sample conditioner tube jacket temperature (°C),OPC LED temperature (°C),internal box temperature (°C),relative humidity of the measurement (%),span deviation,mass concentration of particles derived from Lorenz-Mie calculation of OPC scattering (μg/m³),mass concentration of particles derived from Lorenz-Mie calculation of OPC scattering (μg/m³),mass concentration of particles derived from Lorenz-Mie calculation of OPC scattering (μg/m³)
DateTimeUTC,F1_M11,P_M11,Q1_M11,Q2_M11,T1_M11,T2_M11,T3_M11,T4_M11,T5_M11,U1_M11,ZSPAN_M11,X0_M11,X2_M11,X1_M11
2024-03-10 00:00:00,SystemResetWarning,0828.9,5.00,000.00,021.8,021.0,000.0,030.3,023.5,08.0,0000.0,0009.00,0004.00,0003.48
2024-03-10 00:01:00,SystemResetWarning,0829.0,5.01,000.00,021.8,021.0,000.0,030.3,023.5,08.0,0000.0,0008.98,0003.98,0003.48
2024-03-10 00:02:00,SystemResetWarning,0828.9,4.99,000.00,021.8,021.0,000.0,030.3,023.5,08.1,0000.0,0008.92,0003.96,0003.48
2024-03-10 00:03:00,SystemResetWarning,0828.9,4.99,000.00,021.8,021.0,000.0,030.3,023.5,08.0,0000.0,0008.66,0003.95,0003.48
2024-03-10 00:04:00,SystemResetWarning,0828.9,5.00,000.00,021.8,021.0,000.0,030.3,023.5,08.0,0000.0,0009.03,0003.97,0003.48
2024-03-10 00:05:00,SystemResetWarning,0829.0,5.01,000.00,021.8,021.0,000.0,030.3,023.5,07.7,0000.0,0009.33,0003.97,0003.50
2024-03-10 00:06:00,SystemResetWarning,0829.0,5.01,000.00,021.8,021.0,000.0,030.3,023.5,07.9,0000.0,0009.65,0003.95,0003.51
2024-03-10 00:07:00,SystemResetWarning,0829.0,5.00,000.00,021.8,021.0,000.0,030.3,023.5,07.8,0000.0,0009.22,0003.97,0003.52
2024-03-10 00:08:00,SystemResetWarning,0829.0,4.99,000.00,021.8,021.0,000.0,030.3,023.5,07.8,0000.0,0008.65,0003.96,0003.53
2024-03-10 00:09:00,SystemResetWarning,0829.0,5.00,000.00,021.8,021.0,000.0,030.3,023.5,07.5,0000.0,0008.60,0003.96,0003.53
2024-03-10 00:10:00,SystemResetWarning,0829.0,5.00,000.00,021.8,021.0,000.0,030.3,023.5,07.4,0000.0,0008.54,0003.95,0003.52
2024-03-10 00:11:00,SystemResetWarning,0829.0,5.00,000.00,021.8,021.0,000.0,030.3,023.5,07.6,0000.0,0008.43,0003.91,0003.52
2024-03-10 00:12:00,SystemResetWarning,0829.0,5.00,000.00,021.8,021.0,000.0,030.3,023.5,07.4,0000.0,0008.41,0003.89,0003.51
2024-03-10 00:13:00,SystemResetWarning,0829.0,5.00,000.00,021.8,021.0,000.0,030.2,023.5,07.4,0000.0,0008.44,0003.88,0003.49
2024-03-10 00:14:00,SystemResetWarning,0829.0,5.00,000.00,021.8,021.0,000.0,030.2,023.5,07.5,0000.0,0008.49,0003.88,0003.48
2024-03-10 00:15:00,SystemResetWarning,0829.0,5.00,000.00,021.7,020.9,000.0,030.3,023.5,07.4,0000.0,0008.11,0003.87,0003.47
2024-03-10 00:16:00,SystemResetWarning,0829.0,5.00,000.00,021.7,020.9,000.0,030.3,023.5,07.4,0000.0,0008.03,0003.85,0003.46
2024-03-10 00:17:00,SystemResetWarning,0829.0,5.01,000.00,021.7,020.9,000.0,030.3,023.5,07.4,0000.0,0007.82,0003.84,0003.45
2024-03-10 00:18:00,SystemResetWarning,0829.0,5.00,000.00,021.7,020.9,000.0,030.2,023.5,07.5,0000.0,0007.85,0003.81,0003.43
2024-03-10 00:19:00,SystemResetWarning,0829.0,4.99,000.00,021.7,020.9,000.0,030.2,023.5,07.6,0000.0,0007.83,0003.82,0003.41
2024-03-10 00:20:00,SystemResetWarning,0829.0,5.00,000.00,021.7,020.9,000.0,030.2,023.5,07.7,0000.0,0007.82,0003.83,0003.39
2024-03-10 00:21:00,SystemResetWarning,0829.0,5.01,000.00,021.7,020.9,000.0,030.2,023.5,07.7,0000.0,0007.79,0003.80,0003.38
2024-03-10 00:22:00,SystemResetWarning,0829.0,5.01,000.00,021.7,020.9,000.0,030.2,023.5,08.0,0000.0,0007.83,0003.80,0003.37
2024-03-10 00:23:00,SystemResetWarning,0829.0,5.00,000.00,021.7,020.9,000.0,030.2,023.4,08.1,0000.0,0007.80,0003.83,0003.37
2024-03-10 00:24:00,SystemResetWarning,0829.0,4.99,000.00,021.7,020.9,000.0,030.2,023.4,08.2,0000.0,0008.26,0003.87,0003.38
2024-03-10 00:25:00,SystemResetWarning,0829.0,4.99,000.00,021.7,020.9,000.0,030.2,023.4,07.8,0000.0,0008.34,0003.86,0003.38
2024-03-10 00:26:00,SystemResetWarning,0828.9,5.00,000.00,021.7,020.9,000.0,030.2,023.4,07.8,0000.0,0008.58,0003.88,0003.38
2024-03-10 00:27:00,SystemResetWarning,0828.9,5.00,000.00,021.7,020.9,000.0,030.2,023.4,08.0,0000.0,0008.82,0003.88,0003.39
2024-03-10 00:28:00,SystemResetWarning,0828.9,5.00,000.00,021.7,020.9,000.0,030.2,023.4,07.7,0000.0,0008.62,0003.90,0003.40
2024-03-10 00:29:00,SystemResetWarning,0828.9,5.01,000.00,021.7,020.9,000.0,030.2,023.4,07.8,0000.0,0008.52,0003.91,0003.41
2024-03-10 00:30:00,SystemResetWarning,0828.9,5.00,000.00,021.7,020.8,000.0,030.2,023.4,07.9,0000.0,0008.33,0003.89,0003.42
2024-03-10 00:31:00,SystemResetWarning,0828.9,5.00,000.00,021.7,020.9,000.0,030.2,023.4,07.7,0000.0,0008.18,0003.86,0003.44
2024-03-10 00:32:00,SystemResetWarning,0828.9,4.99,000.00,021.7,020.8,000.0,030.2,023.4,07.8,0000.0,0008.84,0003.89,0003.45
2024-03-10 00:33:00,SystemResetWarning,0828.9,5.00,000.00,021.7,020.8,000.0,030.2,023.4,07.8,0000.0,0008.89,0003.93,0003.46
2024-03-10 00:34:00,SystemResetWarning,0829.0,5.00,000.00,021.7,020.8,000.0,030.2,023.4,07.8,0000.0,0008.86,0003.91,0003.45
2024-03-10 00:35:00,SystemResetWarning,0829.0,5.00,000.00,021.7,020.8,000.0,030.2,023.4,07.9,0000.0,0008.49,0003.88,0003.45
2024-03-10 00:36:00,SystemResetWarning,0828.9,5.00,000.00,021.7,020.8,000.0,030.2,023.4,07.8,0000.0,0008.63,0003.89,0003.46
2024-03-10 00:37:00,SystemResetWarning,0829.0,5.01,000.00,021.7,020.8,000.0,030.2,023.4,07.9,0000.0,0008.42,0003.88,0003.46
2024-03-10 00:38:00,SystemResetWarning,0829.0,5.00,000.00,021.7,020.8,000.0,030.2,023.4,07.9,0000.0,0007.98,0003.88,0003.45
2024-03-10 00:39:00,SystemResetWarning,0829.0,5.01,000.00,021.7,020.8,000.0,030.2,023.4,07.9,0000.0,0007.84,0003.86,0003.44
2024-03-10 00:40:00,SystemResetWarning,0829.0,5.00,000.00,021.7,020.8,000.0,030.2,023.4,08.0,0000.0,0008.36,0003.83,0003.42
2024-03-10 00:41:00,SystemResetWarning,0829.0,5.00,000.00,021.7,020.8,000.0,030.2,023.4,08.0,0000.0,0009.44,0003.83,0003.41
2024-03-10 00:42:00,SystemResetWarning,0829.0,5.00,000.00,021.7,020.8,000.0,030.2,023.4,08.0,0000.0,0009.44,0003.83,0003.40
2024-03-10 00:43:00,SystemResetWarning,0829.0,4.99,000.00,021.7,020.9,000.0,030.2,023.4,08.0,0000.0,0008.98,0003.81,0003.39
2024-03-10 00:44:00,SystemResetWarning,0829.0,5.00,000.00,021.7,020.9,000.0,030.2,023.4,08.0,0000.0,0009.58,0003.81,0003.39
2024-03-10 00:45:00,SystemResetWarning,0829.0,5.00,000.00,021.7,020.9,000.0,030.2,023.4,08.1,0000.0,0009.94,0003.83,0003.39
2024-03-10 00:46:00,SystemResetWarning,0829.0,5.00,000.00,021.7,020.9,000.0,030.2,023.5,08.2,0000.0,0010.00,0003.88,0003.40
2024-03-10 00:47:00,SystemResetWarning,0829.0,5.00,000.00,021.7,020.9,000.0,030.2,023.5,08.2,0000.0,0009.77,0003.87,0003.39
2024-03-10 00:48:00,SystemResetWarning,0828.9,5.00,000.00,021.7,021.0,000.0,030.2,023.5,08.3,0000.0,0009.74,0003.86,0003.38
2024-03-10 00:49:00,SystemResetWarning,0829.0,5.00,000.00,021.7,021.0,000.0,030.2,023.5,08.2,0000.0,0009.66,0003.86,0003.38
2024-03-10 00:50:00,SystemResetWarning,0829.0,5.00,000.00,021.7,021.0,000.0,030.2,023.5,08.2,0000.0,0009.65,0003.86,0003.38
2024-03-10 00:51:00,SystemResetWarning,0829.0,5.00,000.00,021.7,021.0,000.0,030.2,023.5,08.2,0000.0,0009.16,0003.85,0003.37
2024-03-10 00:52:00,SystemResetWarning,0829.0,5.00,000.00,021.7,021.0,000.0,030.2,023.5,08.3,0000.0,0008.14,0003.87,0003.37
2024-03-10 00:53:00,SystemResetWarning,0829.0,5.00,000.00,021.7,020.9,000.0,030.2,023.5,08.3,0000.0,0008.17,0003.88,0003.36
2024-03-10 00:54:00,SystemResetWarning,0829.0,5.00,000.00,021.7,020.9,000.0,030.2,023.5,08.3,0000.0,0008.06,0003.90,0003.36
2024-03-10 00:55:00,SystemResetWarning,0829.0,5.00,000.00,021.7,020.8,000.0,030.2,023.4,08.1,0000.0,0007.29,0003.89,0003.37
2024-03-10 00:56:00,SystemResetWarning,0828.9,5.00,000.00,021.7,020.8,000.0,030.2,023.4,08.1,0000.0,0007.01,0003.90,0003.37
2024-03-10 00:57:00,SystemResetWarning,0829.0,5.00,000.00,021.7,020.8,000.0,030.2,023.4,08.3,0000.0,0007.60,0003.86,0003.35
2024-03-10 00:58:00,SystemResetWarning,0829.0,5.00,000.00,021.7,020.8,000.0,030.2,023.4,08.5,0000.0,0007.83,0003.84,0003.34
2024-03-10 00:59:00,SystemResetWarning,0828.9,5.01,000.00,021.7,020.7,000.0,030.2,023.3,08.4,0000.0,0007.79,0003.84,0003.33
